Погода в Покровске

Украина / Донецкая область     48°16′51″N   37°10′45″E
темп.,
°C
ветер,
м/с
пор.,
м/с
влажн.,
%
обл.,
%
осадки,
мм/ч
давл.,
гПа
погр.,
м
4 марта, чт
чт423:00−1з34780 0.0 102484
02:00−1зюз37850 0.0 1024161
05:00−1зюз510850 0.0 1023280
08:00+1зюз711740 0.0 1021516
11:00+5зюз8115525 0.0 1019946
14:00+7зюз9135412 0.0 10171159
17:00+5юз614700 0.0 1014514
20:00+4юз8167732 0.0 1014621
5 марта, пт
пт523:00+3юз8178180 0.0 1013581
02:00+2юз8158970 0.0 1013542
05:00+2юз71392100 0.0 1012515
08:00+3юз7119399 0.0 1012478
11:00+4юз6989100 0.2 1012459
14:00+6юз6982100 0.3 1011746
17:00+7ююз51277100 0.0 1009505
20:00+6юз61379100 0.1 1010407
6 марта, сб
сб623:00+6з41093100 0.5 1011426
02:00+4зсз6988100 1.4 1013602
05:00+2зсз5887100 0.0 1014607
08:00+1ссз5784100 0.1 1016650
11:00+1сз6770100 0.1 1017996
14:00+2сз6856100 0.1 10171368
17:00+1сз685099 0.0 10181292
20:00−2сз8115394 0.1 10211040
7 марта, вс
вс723:00−3сз79553 0.0 10231303
02:00−3сз69587 0.0 10231137
05:00−4зсз58570 0.0 1024837
08:00−3зсз57500 0.0 1025848
11:000з68390 0.0 10231093
14:00+2зюз811360 0.0 10211288
17:000юз712500 0.0 1018710
20:00−1зюз715555 0.0 1018608
8 марта, пн
пн823:00−2зюз815639 0.0 1016644
02:00−2зюз815648 0.0 1015576
05:00−2зюз7137169 0.0 1014532
08:00−1зюз6106773 0.0 1014634
11:00+2з795892 0.0 10141218
14:00+3з686296 0.0 10131194
17:00+1з3685100 0.1 1013318
20:00−1з2497100 0.1 1014125